﻿測定場所 (Monitoring sites),日付 (Measurement date),時間 (Measurement time),線量率 最大値 (max) μGy/h,線量率 最小値 (min) μGy/h,線量率 平均値 (average) μGy/h,
江戸川 (Edogawa),2017-07-23,23:01～24:00,0.0583,0.0506,0.0555,
江戸川 (Edogawa),2017-07-23,22:01～23:00,0.0600,0.0526,0.0561,
江戸川 (Edogawa),2017-07-23,21:01～22:00,0.0601,0.0527,0.0562,
江戸川 (Edogawa),2017-07-23,20:01～21:00,0.0601,0.0533,0.0559,
江戸川 (Edogawa),2017-07-23,19:01～20:00,0.0584,0.0532,0.0559,
江戸川 (Edogawa),2017-07-23,18:01～19:00,0.0596,0.0535,0.0562,
江戸川 (Edogawa),2017-07-23,17:01～18:00,0.0604,0.0522,0.0559,
江戸川 (Edogawa),2017-07-23,16:01～17:00,0.0599,0.0535,0.0575,
江戸川 (Edogawa),2017-07-23,15:01～16:00,0.0635,0.0513,0.0582,
江戸川 (Edogawa),2017-07-23,14:01～15:00,0.0645,0.0557,0.0595,
江戸川 (Edogawa),2017-07-23,13:01～14:00,0.0658,0.0575,0.0615,
江戸川 (Edogawa),2017-07-23,12:01～13:00,0.0652,0.0550,0.0595,
江戸川 (Edogawa),2017-07-23,11:01～12:00,0.0597,0.0531,0.0563,
江戸川 (Edogawa),2017-07-23,10:01～11:00,0.0598,0.0529,0.0556,
江戸川 (Edogawa),2017-07-23,09:01～10:00,0.0599,0.0520,0.0557,
江戸川 (Edogawa),2017-07-23,08:01～09:00,0.0598,0.0523,0.0561,
江戸川 (Edogawa),2017-07-23,07:01～08:00,0.0604,0.0523,0.0558,
江戸川 (Edogawa),2017-07-23,06:01～07:00,0.0582,0.0527,0.0559,
江戸川 (Edogawa),2017-07-23,05:01～06:00,0.0589,0.0525,0.0558,
江戸川 (Edogawa),2017-07-23,04:01～05:00,0.0596,0.0523,0.0557,
江戸川 (Edogawa),2017-07-23,03:01～04:00,0.0590,0.0526,0.0557,
江戸川 (Edogawa),2017-07-23,02:01～03:00,0.0584,0.0528,0.0560,
江戸川 (Edogawa),2017-07-23,01:01～02:00,0.0590,0.0509,0.0556,
江戸川 (Edogawa),2017-07-23,00:01～01:00,0.0593,0.0525,0.0559,
江戸川 (Edogawa),2017-07-22,23:01～24:00,0.0600,0.0518,0.0561,
江戸川 (Edogawa),2017-07-22,22:01～23:00,0.0581,0.0521,0.0552,
江戸川 (Edogawa),2017-07-22,21:01～22:00,0.0591,0.0518,0.0556,
江戸川 (Edogawa),2017-07-22,20:01～21:00,0.0587,0.0522,0.0557,
江戸川 (Edogawa),2017-07-22,19:01～20:00,0.0603,0.0533,0.0560,
江戸川 (Edogawa),2017-07-22,18:01～19:00,0.0583,0.0519,0.0559,
江戸川 (Edogawa),2017-07-22,17:01～18:00,0.0601,0.0518,0.0556,
江戸川 (Edogawa),2017-07-22,16:01～17:00,0.0604,0.0522,0.0558,
江戸川 (Edogawa),2017-07-22,15:01～16:00,0.0610,0.0527,0.0560,
江戸川 (Edogawa),2017-07-22,14:01～15:00,0.0586,0.0525,0.0557,
江戸川 (Edogawa),2017-07-22,13:01～14:00,0.0589,0.0523,0.0556,
江戸川 (Edogawa),2017-07-22,12:01～13:00,0.0605,0.0531,0.0558,
江戸川 (Edogawa),2017-07-22,11:01～12:00,0.0592,0.0527,0.0559,
江戸川 (Edogawa),2017-07-22,10:01～11:00,0.0597,0.0523,0.0558,
江戸川 (Edogawa),2017-07-22,09:01～10:00,0.0591,0.0527,0.0559,
江戸川 (Edogawa),2017-07-22,08:01～09:00,0.0605,0.0525,0.0556,
江戸川 (Edogawa),2017-07-22,07:01～08:00,0.0602,0.0531,0.0557,
江戸川 (Edogawa),2017-07-22,06:01～07:00,0.0587,0.0521,0.0554,
江戸川 (Edogawa),2017-07-22,05:01～06:00,0.0595,0.0509,0.0554,
江戸川 (Edogawa),2017-07-22,04:01～05:00,0.0594,0.0533,0.0559,
江戸川 (Edogawa),2017-07-22,03:01～04:00,0.0609,0.0526,0.0560,
江戸川 (Edogawa),2017-07-22,02:01～03:00,0.0587,0.0519,0.0553,
江戸川 (Edogawa),2017-07-22,01:01～02:00,0.0612,0.0530,0.0559,
江戸川 (Edogawa),2017-07-22,00:01～01:00,0.0583,0.0525,0.0555,
江戸川 (Edogawa),2017-07-21,23:01～24:00,0.0586,0.0529,0.0557,
江戸川 (Edogawa),2017-07-21,22:01～23:00,0.0597,0.0528,0.0558,
江戸川 (Edogawa),2017-07-21,21:01～22:00,0.0589,0.0530,0.0559,
江戸川 (Edogawa),2017-07-21,20:01～21:00,0.0584,0.0531,0.0558,
江戸川 (Edogawa),2017-07-21,19:01～20:00,0.0592,0.0528,0.0559,
江戸川 (Edogawa),2017-07-21,18:01～19:00,0.0586,0.0525,0.0555,
江戸川 (Edogawa),2017-07-21,17:01～18:00,0.0589,0.0524,0.0558,
江戸川 (Edogawa),2017-07-21,16:01～17:00,0.0603,0.0533,0.0559,
江戸川 (Edogawa),2017-07-21,15:01～16:00,0.0589,0.0513,0.0556,
江戸川 (Edogawa),2017-07-21,14:01～15:00,0.0576,0.0523,0.0555,
江戸川 (Edogawa),2017-07-21,13:01～14:00,0.0612,0.0533,0.0562,
江戸川 (Edogawa),2017-07-21,12:01～13:00,0.0604,0.0520,0.0555,
江戸川 (Edogawa),2017-07-21,11:01～12:00,0.0607,0.0520,0.0556,
江戸川 (Edogawa),2017-07-21,10:01～11:00,0.0602,0.0510,0.0558,
江戸川 (Edogawa),2017-07-21,09:01～10:00,0.0592,0.0517,0.0553,
江戸川 (Edogawa),2017-07-21,08:01～09:00,0.0586,0.0520,0.0552,
江戸川 (Edogawa),2017-07-21,07:01～08:00,0.0588,0.0503,0.0552,
江戸川 (Edogawa),2017-07-21,06:01～07:00,0.0586,0.0530,0.0553,
江戸川 (Edogawa),2017-07-21,05:01～06:00,0.0591,0.0515,0.0556,
江戸川 (Edogawa),2017-07-21,04:01～05:00,0.0604,0.0517,0.0556,
江戸川 (Edogawa),2017-07-21,03:01～04:00,0.0588,0.0524,0.0559,
江戸川 (Edogawa),2017-07-21,02:01～03:00,0.0596,0.0524,0.0557,
江戸川 (Edogawa),2017-07-21,01:01～02:00,0.0586,0.0521,0.0557,
江戸川 (Edogawa),2017-07-21,00:01～01:00,0.0596,0.0527,0.0558,
江戸川 (Edogawa),2017-07-20,23:01～24:00,0.0594,0.0518,0.0555,
江戸川 (Edogawa),2017-07-20,22:01～23:00,0.0587,0.0519,0.0553,
江戸川 (Edogawa),2017-07-20,21:01～22:00,0.0590,0.0524,0.0555,
江戸川 (Edogawa),2017-07-20,20:01～21:00,0.0606,0.0511,0.0557,
江戸川 (Edogawa),2017-07-20,19:01～20:00,0.0588,0.0520,0.0557,
江戸川 (Edogawa),2017-07-20,18:01～19:00,0.0599,0.0525,0.0558,
江戸川 (Edogawa),2017-07-20,17:01～18:00,0.0598,0.0526,0.0559,
江戸川 (Edogawa),2017-07-20,16:01～17:00,0.0605,0.0517,0.0561,
江戸川 (Edogawa),2017-07-20,15:01～16:00,0.0596,0.0528,0.0560,
江戸川 (Edogawa),2017-07-20,14:01～15:00,0.0585,0.0527,0.0560,
江戸川 (Edogawa),2017-07-20,13:01～14:00,0.0594,0.0530,0.0562,
江戸川 (Edogawa),2017-07-20,12:01～13:00,0.0603,0.0529,0.0561,
江戸川 (Edogawa),2017-07-20,11:01～12:00,0.0593,0.0536,0.0561,
江戸川 (Edogawa),2017-07-20,10:01～11:00,0.0597,0.0520,0.0560,
江戸川 (Edogawa),2017-07-20,09:01～10:00,0.0585,0.0534,0.0559,
江戸川 (Edogawa),2017-07-20,08:01～09:00,0.0589,0.0523,0.0556,
江戸川 (Edogawa),2017-07-20,07:01～08:00,0.0589,0.0517,0.0558,
江戸川 (Edogawa),2017-07-20,06:01～07:00,0.0605,0.0516,0.0558,
江戸川 (Edogawa),2017-07-20,05:01～06:00,0.0589,0.0529,0.0561,
江戸川 (Edogawa),2017-07-20,04:01～05:00,0.0591,0.0532,0.0561,
江戸川 (Edogawa),2017-07-20,03:01～04:00,0.0593,0.0526,0.0563,
江戸川 (Edogawa),2017-07-20,02:01～03:00,0.0599,0.0524,0.0562,
江戸川 (Edogawa),2017-07-20,01:01～02:00,0.0587,0.0531,0.0559,
江戸川 (Edogawa),2017-07-20,00:01～01:00,0.0587,0.0522,0.0561,
江戸川 (Edogawa),2017-07-19,23:01～24:00,0.0602,0.0524,0.0564,
江戸川 (Edogawa),2017-07-19,22:01～23:00,0.0592,0.0542,0.0565,
江戸川 (Edogawa),2017-07-19,21:01～22:00,0.0586,0.0527,0.0561,
江戸川 (Edogawa),2017-07-19,20:01～21:00,0.0600,0.0515,0.0558,
江戸川 (Edogawa),2017-07-19,19:01～20:00,0.0591,0.0525,0.0561,
江戸川 (Edogawa),2017-07-19,18:01～19:00,0.0586,0.0534,0.0562,
江戸川 (Edogawa),2017-07-19,17:01～18:00,0.0594,0.0522,0.0558,
江戸川 (Edogawa),2017-07-19,16:01～17:00,0.0601,0.0532,0.0563,
江戸川 (Edogawa),2017-07-19,15:01～16:00,0.0589,0.0526,0.0559,
江戸川 (Edogawa),2017-07-19,14:01～15:00,0.0598,0.0531,0.0560,
江戸川 (Edogawa),2017-07-19,13:01～14:00,0.0587,0.0519,0.0555,
江戸川 (Edogawa),2017-07-19,12:01～13:00,0.0582,0.0531,0.0556,
江戸川 (Edogawa),2017-07-19,11:01～12:00,0.0598,0.0526,0.0560,
江戸川 (Edogawa),2017-07-19,10:01～11:00,0.0589,0.0531,0.0560,
江戸川 (Edogawa),2017-07-19,09:01～10:00,0.0593,0.0531,0.0560,
江戸川 (Edogawa),2017-07-19,08:01～09:00,0.0600,0.0519,0.0556,
江戸川 (Edogawa),2017-07-19,07:01～08:00,0.0584,0.0520,0.0557,
江戸川 (Edogawa),2017-07-19,06:01～07:00,0.0594,0.0518,0.0557,
江戸川 (Edogawa),2017-07-19,05:01～06:00,0.0588,0.0514,0.0557,
江戸川 (Edogawa),2017-07-19,04:01～05:00,0.0587,0.0525,0.0551,
江戸川 (Edogawa),2017-07-19,03:01～04:00,0.0584,0.0524,0.0551,
江戸川 (Edogawa),2017-07-19,02:01～03:00,0.0589,0.0519,0.0552,
江戸川 (Edogawa),2017-07-19,01:01～02:00,0.0584,0.0518,0.0555,
江戸川 (Edogawa),2017-07-19,00:01～01:00,0.0596,0.0520,0.0551,
江戸川 (Edogawa),2017-07-18,23:01～24:00,0.0586,0.0516,0.0549,
江戸川 (Edogawa),2017-07-18,22:01～23:00,0.0582,0.0516,0.0549,
江戸川 (Edogawa),2017-07-18,21:01～22:00,0.0590,0.0515,0.0553,
江戸川 (Edogawa),2017-07-18,20:01～21:00,0.0586,0.0516,0.0550,
江戸川 (Edogawa),2017-07-18,19:01～20:00,0.0593,0.0513,0.0551,
江戸川 (Edogawa),2017-07-18,18:01～19:00,0.0580,0.0510,0.0548,
江戸川 (Edogawa),2017-07-18,17:01～18:00,0.0591,0.0514,0.0554,
江戸川 (Edogawa),2017-07-18,16:01～17:00,0.0591,0.0530,0.0561,
江戸川 (Edogawa),2017-07-18,15:01～16:00,0.0620,0.0531,0.0574,
江戸川 (Edogawa),2017-07-18,14:01～15:00,0.0599,0.0511,0.0558,
江戸川 (Edogawa),2017-07-18,13:01～14:00,0.0592,0.0518,0.0556,
江戸川 (Edogawa),2017-07-18,12:01～13:00,0.0612,0.0531,0.0562,
江戸川 (Edogawa),2017-07-18,11:01～12:00,0.0602,0.0530,0.0561,
江戸川 (Edogawa),2017-07-18,10:01～11:00,0.0602,0.0536,0.0563,
江戸川 (Edogawa),2017-07-18,09:01～10:00,0.0581,0.0525,0.0558,
江戸川 (Edogawa),2017-07-18,08:01～09:00,0.0601,0.0529,0.0560,
江戸川 (Edogawa),2017-07-18,07:01～08:00,0.0604,0.0528,0.0558,
江戸川 (Edogawa),2017-07-18,06:01～07:00,0.0592,0.0523,0.0557,
江戸川 (Edogawa),2017-07-18,05:01～06:00,0.0593,0.0507,0.0558,
江戸川 (Edogawa),2017-07-18,04:01～05:00,0.0593,0.0519,0.0560,
江戸川 (Edogawa),2017-07-18,03:01～04:00,0.0599,0.0534,0.0563,
江戸川 (Edogawa),2017-07-18,02:01～03:00,0.0588,0.0531,0.0560,
江戸川 (Edogawa),2017-07-18,01:01～02:00,0.0598,0.0517,0.0557,
江戸川 (Edogawa),2017-07-18,00:01～01:00,0.0583,0.0531,0.0559,
江戸川 (Edogawa),2017-07-17,23:01～24:00,0.0592,0.0525,0.0558,
江戸川 (Edogawa),2017-07-17,22:01～23:00,0.0588,0.0528,0.0557,
江戸川 (Edogawa),2017-07-17,21:01～22:00,0.0584,0.0524,0.0555,
江戸川 (Edogawa),2017-07-17,20:01～21:00,0.0579,0.0517,0.0557,
江戸川 (Edogawa),2017-07-17,19:01～20:00,0.0600,0.0517,0.0556,
江戸川 (Edogawa),2017-07-17,18:01～19:00,0.0604,0.0530,0.0563,
江戸川 (Edogawa),2017-07-17,17:01～18:00,0.0595,0.0524,0.0558,
江戸川 (Edogawa),2017-07-17,16:01～17:00,0.0588,0.0523,0.0556,
江戸川 (Edogawa),2017-07-17,15:01～16:00,0.0582,0.0517,0.0550,
江戸川 (Edogawa),2017-07-17,14:01～15:00,0.0591,0.0524,0.0558,
江戸川 (Edogawa),2017-07-17,13:01～14:00,0.0588,0.0528,0.0554,
江戸川 (Edogawa),2017-07-17,12:01～13:00,0.0588,0.0522,0.0554,
江戸川 (Edogawa),2017-07-17,11:01～12:00,0.0591,0.0521,0.0556,
江戸川 (Edogawa),2017-07-17,10:01～11:00,0.0596,0.0531,0.0563,
江戸川 (Edogawa),2017-07-17,09:01～10:00,0.0624,0.0530,0.0572,
江戸川 (Edogawa),2017-07-17,08:01～09:00,0.0686,0.0570,0.0632,
江戸川 (Edogawa),2017-07-17,07:01～08:00,0.0718,0.0548,0.0645,
江戸川 (Edogawa),2017-07-17,06:01～07:00,0.0602,0.0532,0.0567,
江戸川 (Edogawa),2017-07-17,05:01～06:00,0.0601,0.0531,0.0568,
江戸川 (Edogawa),2017-07-17,04:01～05:00,0.0603,0.0535,0.0566,
江戸川 (Edogawa),2017-07-17,03:01～04:00,0.0610,0.0534,0.0570,
江戸川 (Edogawa),2017-07-17,02:01～03:00,0.0607,0.0529,0.0568,
江戸川 (Edogawa),2017-07-17,01:01～02:00,0.0602,0.0541,0.0570,
江戸川 (Edogawa),2017-07-17,00:01～01:00,0.0595,0.0543,0.0569,
